Find TDRS 3

NORAD ID: 19548 Int'l Des: 1988-091 Owner: GSFC Country: US operational
HEOCIRCULARGSO

实时位置

正在加载3D地球...

关于 TDRS 3

正在加载描述...

即将过境

Passes for default location (London). Set your location on the main map for personalized predictions.

高度历史

Loading altitude history...

两行轨道根数

1 19548U 88091B 26106.71907971 -.00000295 00000-0 00000+0 0 9995
2 19548 12.6498 341.4048 0040960 355.1683 78.1692 1.00278336124777
Epoch: Apr 16, 2026 • Age: 20 hours

当前状态

高度 35617.7 km
速度 3.09 km/s
星下点 2.40°N, 49.11°W
发射日期 Sep 29, 1988
运行时间 37.5 years
类型 other

技术详情

分类 Payload
质量 2103.00 kg
干质量 1673.00 kg
总质量 2103.00 kg
长度 1.30 m
直径 2.40 m
跨度 17.40 m
形状 Box + Dish + 2 Pan
制造商 TRW
平台类型 TDRS
阶段状态 In Orbit
所有者/国家 GSFC/US

Most Searched